[[{"header":{"parameterUnit":"m.s-1","parameterCategory":1,"la1":30.2991,"la2":30.254,"lo1":-89.0895,"lo2":-89.0444,"dy":0.0017,"dx":0.0017,"nx":28,"ny":28,"refTime":"2025-08-12T21:00:00:Z","depth":0,"parameterNumber":2,"parameterNumberName":"U-component_of_WINDS"},"data":[0,0,0,0,0,0,0,0,0,0,0,0,0,0,0,0,0,0,0,0,0,0,0,0,0,0,0,0,0,0,0,0,0,0,0,0,0,0,0,0,0,0,0,0,0,0,0,0,0,0,0,0,0,0,0,0,0,0,-0.1897,-0.1898,0,-0.1985,-0.1986,-0.1987,-0.2013,-0.2013,-0.2012,-0.2012,-0.2102,-0.2105,-0.2107,0,0,0,0,0,0,0,0,0,0,0,0,0,-0.1751,-0.1754,-0.1897,-0.1898,-0.1899,-0.1984,-0.1986,-0.1987,-0.2013,-0.2013,-0.2012,-0.2012,-0.2101,-0.2104,-0.2108,0,0,0,0,0,0,0,0,0,0,0,0,0,-0.1824,-0.1755,-0.1897,-0.1923,-0.1926,-0.1984,-0.1986,-0.1987,-0.2014,-0.2013,-0.2012,-0.2012,-0.21,-0.2104,-0.2108,-0.2147,0,0,-0.2121,-0.2123,0,0,0,0,0,0,0,0,-0.182,-0.183,-0.1918,-0.1921,-0.1925,-0.1987,-0.1967,-0.2041,-0.2014,-0.198,-0.2012,-0.2011,-0.2064,-0.2071,-0.2089,-0.2151,-0.2155,-0.2121,-0.2124,-0.2126,-0.2127,0,0,0,0,0,0,0,-0.1815,-0.1826,-0.1932,-0.1919,-0.1923,-0.1929,-0.1939,-0.1981,-0.2025,-0.1983,-0.1985,-0.1995,-0.2066,-0.2085,-0.2092,-0.2156,-0.2121,-0.2125,-0.2127,-0.2129,-0.2252,-0.2253,0,0,0,0,0,0,-0.1806,-0.1821,-0.1929,-0.1934,-0.187,-0.1933,-0.1943,-0.1968,-0.2025,-0.2033,-0.1996,-0.1996,-0.2078,-0.2087,-0.2095,-0.2143,-0.2126,-0.2129,-0.2132,-0.2251,-0.2252,-0.2253,0,0,0,0,0,0,-0.1802,-0.1815,-0.1925,-0.1879,-0.1893,-0.1936,-0.1963,-0.197,-0.1989,-0.2034,-0.2042,-0.2007,-0.2078,-0.2089,-0.2133,-0.2146,-0.2131,-0.2135,-0.225,-0.2251,-0.2252,-0.224,0,0,0,0,0,0,-0.1798,-0.1814,-0.1829,-0.1879,-0.1895,-0.1963,-0.1964,-0.1972,-0.1996,-0.1998,-0.2047,-0.2055,-0.2078,-0.2127,-0.2137,-0.2152,-0.2138,-0.2249,-0.2251,-0.2252,-0.2239,-0.224,-0.2241,0,0,0,0,0,-0.1793,-0.1823,-0.183,-0.1843,-0.1916,-0.1964,-0.1973,-0.2,-0.1997,-0.2013,-0.2041,-0.2053,-0.2143,-0.2131,-0.2143,-0.2159,-0.2249,-0.225,-0.2252,-0.2239,-0.224,-0.2241,0,0,0,0,0,0,-0.1775,-0.183,-0.1839,-0.1886,-0.192,-0.1968,-0.1989,-0.2001,-0.2037,-0.2037,-0.2068,-0.2079,-0.2121,-0.2144,-0.213,-0.2198,-0.2196,-0.22,-0.2182,-0.2183,-0.2184,-0.2178,-0.2142,0,0,0,0,0,-0.1776,-0.1811,-0.1857,-0.1894,-0.191,-0.1946,-0.1968,-0.1986,-0.2022,-0.2037,-0.2069,-0.2104,-0.2139,-0.2163,-0.2198,-0.2242,-0.2252,-0.2259,-0.226,-0.226,-0.2264,-0.2287,-0.229,-0.2258,-0.2258,-0.2258,0,0,-0.178,-0.1814,-0.1834,-0.1891,-0.192,-0.1953,-0.1959,-0.1995,-0.202,-0.2043,-0.2086,-0.211,-0.2151,-0.2195,-0.2216,-0.2216,-0.2274,-0.2262,-0.2263,-0.2266,-0.2289,-0.2291,-0.2294,-0.226,-0.2259,-0.2259,0,0,-0.1804,-0.1834,-0.1867,-0.1895,-0.1937,-0.1961,-0.1968,-0.2015,-0.2031,-0.2075,-0.2092,-0.2122,-0.2184,-0.2212,-0.2234,-0.2265,-0.2276,-0.2275,-0.2281,-0.2303,-0.2305,-0.2308,-0.2318,-0.2321,-0.2278,-0.2278,-0.2278,0,-0.1804,-0.1856,-0.1883,-0.1918,-0.1941,-0.1962,-0.1995,-0.2021,-0.2073,-0.2088,-0.2087,-0.2164,-0.2193,-0.2242,-0.2249,-0.2267,-0.2276,-0.227,-0.2303,-0.2305,-0.2308,-0.2318,-0.2321,-0.2278,-0.2278,-0.2278,-0.2278,0,-0.1852,-0.1888,-0.1909,-0.1958,-0.1984,-0.2018,-0.2049,-0.2072,-0.2086,-0.211,-0.2153,-0.2188,-0.223,-0.2243,-0.2258,-0.2294,-0.2292,-0.2297,-0.2295,-0.231,-0.232,-0.2324,-0.2277,-0.2278,-0.2278,-0.2278,0,0,-0.187,-0.1931,-0.1938,-0.196,-0.2007,-0.2034,-0.2068,-0.2109,-0.2127,-0.2162,-0.219,-0.224,-0.2244,-0.2269,-0.2286,-0.2306,-0.2326,-0.2307,-0.2309,-0.2309,-0.2366,-0.2362,-0.2366,-0.2333,-0.2334,-0.2335,-0.2362,0,-0.1899,-0.1961,-0.1985,-0.2034,-0.2067,-0.2085,-0.2114,-0.2146,-0.2167,-0.2197,-0.2221,-0.2256,-0.2258,-0.2273,-0.2293,-0.2319,-0.2338,-0.2318,-0.2359,-0.2361,-0.2349,-0.2372,-0.2369,-0.2393,-0.2366,-0.2367,-0.2368,0,-0.1943,-0.1976,-0.2029,-0.207,-0.2084,-0.211,-0.2148,-0.2177,-0.2212,-0.2226,-0.2252,-0.2268,-0.2303,-0.2298,-0.2345,-0.2331,-0.2349,-0.2364,-0.2366,-0.2371,-0.2365,-0.2377,-0.2402,-0.2405,-0.2374,-0.2373,-0.2373,0,-0.1949,-0.2007,-0.2046,-0.2064,-0.2112,-0.213,-0.2151,-0.2185,-0.2207,-0.224,-0.2254,-0.2291,-0.2311,-0.2338,-0.2363,-0.2357,-0.2407,-0.2405,-0.2419,-0.2419,-0.243,-0.2429,-0.2457,-0.2441,-0.2441,-0.2441,-0.2441,0,-0.1979,-0.2011,-0.2049,-0.2073,-0.2108,-0.2134,-0.2168,-0.219,-0.222,-0.2247,-0.2265,-0.2291,-0.2322,-0.2351,-0.237,-0.2405,-0.2414,-0.2426,-0.2431,-0.2425,-0.2423,-0.2437,-0.2436,-0.2442,-0.2442,-0.2442,-0.2442,0,-0.1993,-0.202,-0.2063,-0.2105,-0.2116,-0.214,-0.2175,-0.2198,-0.2219,-0.2254,-0.2264,-0.2297,-0.2332,-0.2359,-0.2405,-0.2417,-0.2454,-0.246,-0.2443,-0.2445,-0.2458,-0.2456,-0.2496,-0.2502,-0.2482,-0.2482,-0.2483,0,-0.2011,-0.2035,-0.2079,-0.2098,-0.2119,-0.215,-0.2172,-0.2198,-0.222,-0.2261,-0.2278,-0.2314,-0.2344,-0.2398,-0.2427,-0.2461,-0.2467,-0.2479,-0.2472,-0.2464,-0.2466,-0.2465,-0.2466,-0.248,-0.248,-0.248,-0.248,0,-0.2039,-0.2051,-0.2082,-0.2117,-0.2142,-0.2172,-0.2201,-0.2216,-0.2247,-0.227,-0.2306,-0.2329,-0.2374,-0.2409,-0.2445,-0.2466,-0.2478,-0.2481,-0.2486,-0.248,-0.2469,-0.2474,-0.2444,-0.2481,-0.248,-0.248,-0.248,-0.248,-0.2055,-0.2077,-0.211,-0.2144,-0.2168,-0.2194,-0.2218,-0.2241,-0.2271,-0.231,-0.2323,-0.2359,-0.2391,-0.2441,-0.2462,-0.249,-0.249,-0.2498,-0.25,-0.2501,-0.25,-0.2464,-0.2496,-0.2496,-0.2496,-0.2496,-0.2496,0,-0.2084,-0.2106,-0.2136,-0.2176,-0.2202,-0.2209,-0.2242,-0.2262,-0.2294,-0.2323,-0.2351,-0.2391,-0.2424,-0.2453,-0.2488,-0.2504,-0.251,-0.2512,-0.2511,-0.2515,-0.2498,-0.249,-0.2506,-0.2506,-0.2506,-0.2506,-0.2506,-0.2506,-0.2102,-0.2138,-0.2153,-0.2201,-0.2223,-0.2258,-0.2275,-0.2299,-0.2322,-0.2365,-0.2393,-0.2411,-0.244,-0.2476,-0.2506,-0.2514,-0.2525,-0.2526,-0.2535,-0.2518,-0.2517,-0.2516,-0.2508,-0.2528,-0.2528,-0.255,-0.255,-0.255]},{"header":{"parameterUnit":"m.s-1","parameterCategory":1,"la1":30.2991,"la2":30.254,"lo1":-89.0895,"lo2":-89.0444,"dy":0.0017,"dx":0.0017,"nx":28,"ny":28,"refTime":"2025-08-12T21:00:00:Z","depth":0,"parameterNumber":3,"parameterNumberName":"V-component_of_WINDS"},"data":[0,0,0,0,0,0,0,0,0,0,0,0,0,0,0,0,0,0,0,0,0,0,0,0,0,0,0,0,0,0,0,0,0,0,0,0,0,0,0,0,0,0,0,0,0,0,0,0,0,0,0,0,0,0,0,0,0,0,-1.2807,-1.2806,0,-1.2648,-1.2646,-1.2644,-1.2578,-1.2578,-1.2579,-1.2579,-1.2398,-1.2393,-1.2388,0,0,0,0,0,0,0,0,0,0,0,0,0,-1.3037,-1.3033,-1.2807,-1.2805,-1.2804,-1.2648,-1.2646,-1.2644,-1.2578,-1.2578,-1.2579,-1.2579,-1.24,-1.2394,-1.2388,0,0,0,0,0,0,0,0,0,0,0,0,0,-1.2913,-1.3032,-1.2808,-1.2752,-1.2746,-1.2649,-1.2646,-1.2643,-1.2578,-1.2578,-1.2579,-1.2579,-1.2402,-1.2395,-1.2387,-1.2328,0,0,-1.2363,-1.236,0,0,0,0,0,0,0,0,-1.292,-1.2905,-1.2762,-1.2756,-1.2748,-1.2634,-1.2661,-1.2537,-1.2578,-1.2641,-1.2579,-1.258,-1.2475,-1.2461,-1.243,-1.232,-1.2312,-1.2363,-1.2358,-1.2355,-1.2353,0,0,0,0,0,0,0,-1.2929,-1.2911,-1.2744,-1.276,-1.2752,-1.2729,-1.2713,-1.2637,-1.2556,-1.2635,-1.263,-1.2613,-1.2471,-1.2437,-1.2425,-1.2309,-1.2363,-1.2356,-1.2351,-1.2348,-1.2139,-1.2138,0,0,0,0,0,0,-1.2949,-1.2919,-1.2749,-1.2739,-1.2838,-1.2725,-1.2706,-1.267,-1.2557,-1.2541,-1.2613,-1.2611,-1.245,-1.2434,-1.2418,-1.234,-1.2355,-1.2348,-1.2343,-1.214,-1.2139,-1.2138,0,0,0,0,0,0,-1.2954,-1.2935,-1.2755,-1.2828,-1.2803,-1.2721,-1.268,-1.2666,-1.2633,-1.254,-1.2524,-1.2595,-1.245,-1.2429,-1.2352,-1.2333,-1.2344,-1.2337,-1.2141,-1.2139,-1.2138,-1.2185,0,0,0,0,0,0,-1.2961,-1.2937,-1.2918,-1.2828,-1.28,-1.2697,-1.2679,-1.2663,-1.2621,-1.2617,-1.2519,-1.2502,-1.2449,-1.2364,-1.2344,-1.2323,-1.2331,-1.2142,-1.214,-1.2139,-1.2185,-1.2186,-1.2186,0,0,0,0,0,-1.297,-1.2935,-1.2918,-1.2897,-1.2775,-1.2696,-1.2679,-1.2624,-1.2621,-1.2598,-1.2538,-1.2506,-1.2339,-1.2356,-1.2334,-1.231,-1.2143,-1.2141,-1.2139,-1.2185,-1.2185,-1.2186,0,0,0,0,0,0,-1.3019,-1.2922,-1.2902,-1.2838,-1.2777,-1.2685,-1.2655,-1.2626,-1.256,-1.2558,-1.2486,-1.2464,-1.2392,-1.2342,-1.2364,-1.2245,-1.2238,-1.2231,-1.228,-1.228,-1.2281,-1.2293,-1.2325,0,0,0,0,0,-1.3024,-1.2974,-1.2888,-1.2839,-1.281,-1.2739,-1.2702,-1.2665,-1.2595,-1.2567,-1.2502,-1.2432,-1.2363,-1.2319,-1.225,-1.2178,-1.2152,-1.2149,-1.215,-1.2151,-1.2145,-1.2099,-1.2096,-1.2131,-1.2131,-1.2131,0,0,-1.303,-1.2971,-1.2942,-1.2848,-1.2796,-1.274,-1.2717,-1.2659,-1.2614,-1.2556,-1.2481,-1.243,-1.2346,-1.227,-1.2233,-1.2226,-1.213,-1.2148,-1.215,-1.2143,-1.2097,-1.2094,-1.2091,-1.2129,-1.213,-1.213,0,0,-1.3014,-1.2966,-1.292,-1.2869,-1.2792,-1.2745,-1.2733,-1.2646,-1.2612,-1.2536,-1.2491,-1.2434,-1.2318,-1.226,-1.2215,-1.2175,-1.2141,-1.2154,-1.2157,-1.2113,-1.211,-1.2107,-1.209,-1.2085,-1.2149,-1.2149,-1.2149,0,-1.3031,-1.2951,-1.2897,-1.2843,-1.28,-1.2751,-1.27,-1.2651,-1.2554,-1.2523,-1.2519,-1.2372,-1.2311,-1.222,-1.221,-1.2176,-1.2157,-1.2165,-1.2116,-1.2112,-1.2109,-1.2091,-1.2086,-1.2151,-1.2151,-1.2151,-1.215,0,-1.2973,-1.2917,-1.2888,-1.2802,-1.2755,-1.2702,-1.2636,-1.2595,-1.2561,-1.2512,-1.2432,-1.2358,-1.2273,-1.2249,-1.2213,-1.215,-1.2149,-1.2131,-1.2122,-1.2109,-1.2091,-1.2084,-1.2154,-1.2153,-1.2153,-1.2152,0,0,-1.2983,-1.287,-1.2859,-1.2819,-1.273,-1.2683,-1.2625,-1.2548,-1.2512,-1.2445,-1.2392,-1.2295,-1.2278,-1.2227,-1.2183,-1.2145,-1.2115,-1.2131,-1.2128,-1.2129,-1.2037,-1.205,-1.2044,-1.2093,-1.2091,-1.209,-1.2043,0,-1.2954,-1.2856,-1.2806,-1.2726,-1.2671,-1.2623,-1.2571,-1.2508,-1.246,-1.2401,-1.2345,-1.2277,-1.2262,-1.223,-1.219,-1.2128,-1.2095,-1.213,-1.2036,-1.2033,-1.2058,-1.2035,-1.2049,-1.2009,-1.2036,-1.2035,-1.2034,0,-1.2907,-1.2847,-1.2764,-1.2681,-1.2655,-1.2612,-1.2535,-1.2482,-1.2406,-1.2373,-1.2317,-1.2275,-1.2205,-1.2203,-1.2103,-1.2128,-1.2086,-1.2049,-1.2046,-1.2033,-1.2032,-1.2019,-1.1995,-1.1988,-1.2024,-1.2024,-1.2025,0,-1.2921,-1.2818,-1.2755,-1.2722,-1.2623,-1.2593,-1.2549,-1.2475,-1.2431,-1.2362,-1.2331,-1.2253,-1.2209,-1.2147,-1.2082,-1.2087,-1.1987,-1.198,-1.1953,-1.1955,-1.1933,-1.1935,-1.19,-1.191,-1.191,-1.191,-1.191,0,-1.2892,-1.2843,-1.276,-1.2721,-1.2662,-1.2602,-1.2543,-1.2494,-1.2429,-1.2374,-1.2325,-1.2274,-1.2193,-1.2129,-1.2077,-1.2,-1.1981,-1.1948,-1.1934,-1.1952,-1.1956,-1.1922,-1.1922,-1.1908,-1.1908,-1.1909,-1.1909,0,-1.2898,-1.2841,-1.2769,-1.2682,-1.2659,-1.2619,-1.2542,-1.2498,-1.2448,-1.238,-1.236,-1.2278,-1.2201,-1.2131,-1.2026,-1.1991,-1.1912,-1.1896,-1.194,-1.1932,-1.1908,-1.1911,-1.1848,-1.1835,-1.1857,-1.1857,-1.1857,0,-1.2883,-1.2845,-1.2755,-1.2719,-1.2677,-1.2618,-1.2574,-1.2511,-1.2466,-1.2377,-1.2343,-1.2263,-1.2197,-1.2074,-1.2001,-1.192,-1.1899,-1.1883,-1.1886,-1.1904,-1.1896,-1.1899,-1.1892,-1.1883,-1.1883,-1.1883,-1.1884,0,-1.2862,-1.2836,-1.2778,-1.2709,-1.2659,-1.26,-1.2539,-1.251,-1.2434,-1.2385,-1.2309,-1.2257,-1.2153,-1.2072,-1.1983,-1.193,-1.1892,-1.1884,-1.1872,-1.1889,-1.1915,-1.1898,-1.1939,-1.1885,-1.1885,-1.1884,-1.1884,-1.1884,-1.2855,-1.2818,-1.275,-1.2685,-1.2633,-1.2577,-1.2533,-1.2478,-1.2415,-1.233,-1.2294,-1.2215,-1.2136,-1.2013,-1.1961,-1.1894,-1.1886,-1.1871,-1.1866,-1.1863,-1.1865,-1.1928,-1.1877,-1.1877,-1.1877,-1.1877,-1.1876,0,-1.283,-1.2784,-1.2726,-1.2644,-1.2592,-1.2568,-1.2498,-1.2454,-1.2387,-1.232,-1.2256,-1.2166,-1.2087,-1.2009,-1.1924,-1.1885,-1.1865,-1.1864,-1.1865,-1.1853,-1.1878,-1.1895,-1.1882,-1.1882,-1.1882,-1.1882,-1.1882,-1.1882,-1.2811,-1.2746,-1.2711,-1.2618,-1.2569,-1.2497,-1.2459,-1.2405,-1.2351,-1.2254,-1.2191,-1.2143,-1.2068,-1.1978,-1.1902,-1.188,-1.185,-1.1854,-1.1827,-1.1851,-1.1851,-1.1852,-1.1868,-1.1848,-1.1848,-1.1806,-1.1806,-1.1806]}]]